Year,Month,Day,Hour,Minute,Value (Times are PST for temperature in C)
2017,09,03,00,00,13.40
2017,09,03,00,01,13.40
2017,09,03,00,02,13.40
2017,09,03,00,03,13.40
2017,09,03,00,04,13.50
2017,09,03,00,05,13.50
2017,09,03,00,06,13.50
2017,09,03,00,07,13.50
2017,09,03,00,08,13.50
2017,09,03,00,09,13.60
2017,09,03,00,10,13.60
2017,09,03,00,11,13.60
2017,09,03,00,12,13.60
2017,09,03,00,13,13.60
2017,09,03,00,14,13.60
2017,09,03,00,15,13.70
2017,09,03,00,16,13.80
2017,09,03,00,17,13.80
2017,09,03,00,18,13.90
2017,09,03,00,19,13.90
2017,09,03,00,20,13.90
2017,09,03,00,21,13.90
2017,09,03,00,22,13.90
2017,09,03,00,23,13.80
2017,09,03,00,24,13.80
2017,09,03,00,25,13.80
2017,09,03,00,26,13.70
2017,09,03,00,27,13.70
2017,09,03,00,28,13.70
2017,09,03,00,29,13.70
2017,09,03,00,30,13.60
2017,09,03,00,31,13.60
2017,09,03,00,32,13.60
2017,09,03,00,33,13.60
2017,09,03,00,34,13.50
2017,09,03,00,35,13.50
2017,09,03,00,36,13.50
2017,09,03,00,37,13.50
2017,09,03,00,38,13.50
2017,09,03,00,39,13.50
2017,09,03,00,40,13.50
2017,09,03,00,41,13.50
2017,09,03,00,42,13.50
2017,09,03,00,43,13.50
2017,09,03,00,44,13.40
2017,09,03,00,45,13.40
2017,09,03,00,46,13.50
2017,09,03,00,47,13.50
2017,09,03,00,48,13.50
2017,09,03,00,49,13.60
2017,09,03,00,50,13.60
2017,09,03,00,51,13.60
2017,09,03,00,52,13.60
2017,09,03,00,53,13.70
2017,09,03,00,54,13.70
2017,09,03,00,55,13.70
2017,09,03,00,56,13.70
2017,09,03,00,57,13.80
2017,09,03,00,58,13.80
2017,09,03,00,59,13.80
2017,09,03,01,00,13.80
2017,09,03,01,01,13.80
2017,09,03,01,02,13.80
2017,09,03,01,03,13.80
2017,09,03,01,04,13.70
2017,09,03,01,05,13.70
2017,09,03,01,06,13.70
2017,09,03,01,07,13.60
2017,09,03,01,08,13.50
2017,09,03,01,09,13.50
2017,09,03,01,10,13.40
2017,09,03,01,11,13.40
2017,09,03,01,12,13.30
2017,09,03,01,13,13.30
2017,09,03,01,14,13.30
2017,09,03,01,15,13.30
2017,09,03,01,16,13.30
2017,09,03,01,17,13.30
2017,09,03,01,18,13.40
2017,09,03,01,19,13.40
2017,09,03,01,20,13.40
2017,09,03,01,21,13.40
2017,09,03,01,22,13.40
2017,09,03,01,23,13.40
2017,09,03,01,24,13.40
2017,09,03,01,25,13.30
2017,09,03,01,26,13.30
2017,09,03,01,27,13.40
2017,09,03,01,28,13.30
2017,09,03,01,29,13.30
2017,09,03,01,30,13.30
2017,09,03,01,31,13.30
2017,09,03,01,32,13.30
2017,09,03,01,33,13.20
2017,09,03,01,34,13.20
2017,09,03,01,35,13.20
2017,09,03,01,36,13.20
2017,09,03,01,37,13.30
2017,09,03,01,38,13.30
2017,09,03,01,39,13.30
2017,09,03,01,40,13.30
2017,09,03,01,41,13.30
2017,09,03,01,42,13.30
2017,09,03,01,43,13.20
2017,09,03,01,44,13.20
2017,09,03,01,45,13.20
2017,09,03,01,46,13.20
2017,09,03,01,47,13.20
2017,09,03,01,48,13.20
2017,09,03,01,49,13.20
2017,09,03,01,50,13.20
2017,09,03,01,51,13.20
2017,09,03,01,52,13.20
2017,09,03,01,53,13.20
2017,09,03,01,54,13.30
2017,09,03,01,55,13.30
2017,09,03,01,56,13.40
2017,09,03,01,57,13.40
2017,09,03,01,58,13.40
2017,09,03,01,59,13.40
2017,09,03,02,00,13.50
2017,09,03,02,01,13.50
2017,09,03,02,02,13.60
2017,09,03,02,03,13.60
2017,09,03,02,04,13.60
2017,09,03,02,05,13.60
2017,09,03,02,06,13.60
2017,09,03,02,07,13.60
2017,09,03,02,08,13.60
2017,09,03,02,09,13.60
2017,09,03,02,10,13.50
2017,09,03,02,11,13.50
2017,09,03,02,12,13.50
2017,09,03,02,13,13.40
2017,09,03,02,14,13.40
2017,09,03,02,15,13.40
2017,09,03,02,16,13.40
2017,09,03,02,17,13.30
2017,09,03,02,18,13.30
2017,09,03,02,19,13.30
2017,09,03,02,20,13.30
2017,09,03,02,21,13.40
2017,09,03,02,22,13.40
2017,09,03,02,23,13.40
2017,09,03,02,24,13.40
2017,09,03,02,25,13.50
2017,09,03,02,26,13.50
2017,09,03,02,27,13.50
2017,09,03,02,28,13.50
2017,09,03,02,29,13.50
2017,09,03,02,30,13.50
2017,09,03,02,31,13.50
2017,09,03,02,32,13.50
2017,09,03,02,33,13.40
2017,09,03,02,34,13.40
2017,09,03,02,35,13.40
2017,09,03,02,36,13.40
2017,09,03,02,37,13.30
2017,09,03,02,38,13.30
2017,09,03,02,39,13.30
2017,09,03,02,40,13.30
2017,09,03,02,41,13.20
2017,09,03,02,42,13.20
2017,09,03,02,43,13.20
2017,09,03,02,44,13.10
2017,09,03,02,45,13.10
2017,09,03,02,46,13.10
2017,09,03,02,47,13.10
2017,09,03,02,48,13.10
2017,09,03,02,49,13.10
2017,09,03,02,50,13.10
2017,09,03,02,51,13.10
2017,09,03,02,52,13.10
2017,09,03,02,53,13.10
2017,09,03,02,54,13.10
2017,09,03,02,55,13.20
2017,09,03,02,56,13.20
2017,09,03,02,57,13.20
2017,09,03,02,58,13.20
2017,09,03,02,59,13.30
2017,09,03,03,00,13.30
2017,09,03,03,01,13.30
2017,09,03,03,02,13.30
2017,09,03,03,03,13.20
2017,09,03,03,04,13.20
2017,09,03,03,05,13.20
2017,09,03,03,06,13.30
2017,09,03,03,07,13.30
2017,09,03,03,08,13.30
2017,09,03,03,09,13.40
2017,09,03,03,10,13.50
2017,09,03,03,11,13.60
2017,09,03,03,12,13.60
2017,09,03,03,13,13.70
2017,09,03,03,14,13.70
2017,09,03,03,15,13.70
2017,09,03,03,16,13.70
2017,09,03,03,17,13.70
2017,09,03,03,18,13.70
2017,09,03,03,19,13.70
2017,09,03,03,20,13.70
2017,09,03,03,21,13.60
2017,09,03,03,22,13.60
2017,09,03,03,23,13.60
2017,09,03,03,24,13.50
2017,09,03,03,25,13.40
2017,09,03,03,26,13.40
2017,09,03,03,27,13.30
2017,09,03,03,28,13.30
2017,09,03,03,29,13.30
2017,09,03,03,30,13.20
2017,09,03,03,31,13.20
2017,09,03,03,32,13.10
2017,09,03,03,33,13.20
2017,09,03,03,34,13.20
2017,09,03,03,35,13.20
2017,09,03,03,36,13.20
2017,09,03,03,37,13.20
2017,09,03,03,38,13.20
2017,09,03,03,39,13.30
2017,09,03,03,40,13.30
2017,09,03,03,41,13.30
2017,09,03,03,42,13.30
2017,09,03,03,43,13.30
2017,09,03,03,44,13.30
2017,09,03,03,45,13.30
2017,09,03,03,46,13.40
2017,09,03,03,47,13.40
2017,09,03,03,48,13.40
2017,09,03,03,49,13.50
2017,09,03,03,50,13.50
2017,09,03,03,51,13.60
2017,09,03,03,52,13.60
2017,09,03,03,53,13.60
2017,09,03,03,54,13.70
2017,09,03,03,55,13.70
2017,09,03,03,56,13.70
2017,09,03,03,57,13.70
2017,09,03,03,58,13.60
2017,09,03,03,59,13.50
2017,09,03,04,00,13.40
2017,09,03,04,01,13.40
2017,09,03,04,02,13.40
2017,09,03,04,03,13.30
2017,09,03,04,04,13.40
2017,09,03,04,05,13.40
2017,09,03,04,06,13.50
2017,09,03,04,07,13.50
2017,09,03,04,08,13.50
2017,09,03,04,09,13.50
2017,09,03,04,10,13.40
2017,09,03,04,11,13.40
2017,09,03,04,12,13.40
2017,09,03,04,13,13.30
2017,09,03,04,14,13.30
2017,09,03,04,15,13.30
2017,09,03,04,16,13.30
2017,09,03,04,17,13.40
2017,09,03,04,18,13.40
2017,09,03,04,19,13.50
2017,09,03,04,20,13.60
2017,09,03,04,21,13.60
2017,09,03,04,22,13.70
2017,09,03,04,23,13.70
2017,09,03,04,24,13.70
2017,09,03,04,25,13.70
2017,09,03,04,26,13.60
2017,09,03,04,27,13.60
2017,09,03,04,28,13.50
2017,09,03,04,29,13.50
2017,09,03,04,30,13.40
2017,09,03,04,31,13.30
2017,09,03,04,32,13.30
2017,09,03,04,33,13.30
2017,09,03,04,34,13.20
2017,09,03,04,35,13.20
2017,09,03,04,36,13.20
2017,09,03,04,37,13.20
2017,09,03,04,38,13.20
2017,09,03,04,39,13.30
2017,09,03,04,40,13.30
2017,09,03,04,41,13.40
2017,09,03,04,42,13.40
2017,09,03,04,43,13.40
2017,09,03,04,44,13.40
2017,09,03,04,45,13.50
2017,09,03,04,46,13.50
2017,09,03,04,47,13.60
2017,09,03,04,48,13.60
2017,09,03,04,49,13.70
2017,09,03,04,50,13.70
2017,09,03,04,51,13.70
2017,09,03,04,52,13.70
2017,09,03,04,53,13.70
2017,09,03,04,54,13.70
2017,09,03,04,55,13.70
2017,09,03,04,56,13.70
2017,09,03,04,57,13.70
2017,09,03,04,58,13.80
2017,09,03,04,59,13.80
2017,09,03,05,00,13.80
2017,09,03,05,01,13.80
2017,09,03,05,02,13.80
2017,09,03,05,03,13.80
2017,09,03,05,04,13.90
2017,09,03,05,05,13.90
2017,09,03,05,06,13.90
2017,09,03,05,07,13.90
2017,09,03,05,08,14.00
2017,09,03,05,09,14.00
2017,09,03,05,10,14.00
2017,09,03,05,11,14.10
2017,09,03,05,12,14.10
2017,09,03,05,13,14.20
2017,09,03,05,14,14.20
2017,09,03,05,15,14.30
2017,09,03,05,16,14.30
2017,09,03,05,17,14.30
2017,09,03,05,18,14.30
2017,09,03,05,19,14.40
2017,09,03,05,20,14.40
2017,09,03,05,21,14.40
2017,09,03,05,22,14.40
2017,09,03,05,23,14.40
2017,09,03,05,24,14.40
2017,09,03,05,25,14.50
2017,09,03,05,26,14.50
2017,09,03,05,27,14.40
2017,09,03,05,28,14.40
2017,09,03,05,29,14.40
2017,09,03,05,30,14.40
2017,09,03,05,31,14.40
2017,09,03,05,32,14.40
2017,09,03,05,33,14.40
2017,09,03,05,34,14.40
2017,09,03,05,35,14.40
2017,09,03,05,36,14.40
2017,09,03,05,37,14.40
2017,09,03,05,38,14.40
2017,09,03,05,39,14.40
2017,09,03,05,40,14.40
2017,09,03,05,41,14.30
2017,09,03,05,42,14.30
2017,09,03,05,43,14.30
2017,09,03,05,44,14.30
2017,09,03,05,45,14.30
2017,09,03,05,46,14.30
2017,09,03,05,47,14.30
2017,09,03,05,48,14.30
2017,09,03,05,49,14.30
2017,09,03,05,50,14.30
2017,09,03,05,51,14.30
2017,09,03,05,52,14.30
2017,09,03,05,53,14.30
2017,09,03,05,54,14.30
2017,09,03,05,55,14.30
2017,09,03,05,56,14.30
2017,09,03,05,57,14.30
2017,09,03,05,58,14.30
2017,09,03,05,59,14.30
2017,09,03,06,00,14.30
2017,09,03,06,01,14.30
2017,09,03,06,02,14.40
2017,09,03,06,03,14.40
2017,09,03,06,04,14.40
2017,09,03,06,05,14.40
2017,09,03,06,06,14.40
2017,09,03,06,07,14.40
2017,09,03,06,08,14.40
2017,09,03,06,09,14.40
2017,09,03,06,10,14.40
2017,09,03,06,11,14.40
2017,09,03,06,12,14.40
2017,09,03,06,13,14.50
2017,09,03,06,14,14.50
2017,09,03,06,15,14.50
2017,09,03,06,16,14.50
2017,09,03,06,17,14.60
2017,09,03,06,18,14.50
2017,09,03,06,19,14.50
2017,09,03,06,20,14.50
2017,09,03,06,21,14.40
2017,09,03,06,22,14.40
2017,09,03,06,23,14.40
2017,09,03,06,24,14.40
2017,09,03,06,25,14.40
2017,09,03,06,26,14.30
2017,09,03,06,27,14.30
2017,09,03,06,28,14.30
2017,09,03,06,29,14.30
2017,09,03,06,30,14.30
2017,09,03,06,31,14.20
2017,09,03,06,32,14.20
2017,09,03,06,33,14.20
2017,09,03,06,34,14.20
2017,09,03,06,35,14.20
2017,09,03,06,36,14.30
2017,09,03,06,37,14.30
2017,09,03,06,38,14.30
2017,09,03,06,39,14.30
2017,09,03,06,40,14.20
2017,09,03,06,41,14.20
2017,09,03,06,42,14.20
2017,09,03,06,43,14.20
2017,09,03,06,44,14.20
2017,09,03,06,45,14.20
2017,09,03,06,46,14.20
2017,09,03,06,47,14.30
2017,09,03,06,48,14.30
2017,09,03,06,49,14.30
2017,09,03,06,50,14.30
2017,09,03,06,51,14.30
2017,09,03,06,52,14.30
2017,09,03,06,53,14.30
2017,09,03,06,54,14.30
2017,09,03,06,55,14.40
2017,09,03,06,56,14.40
2017,09,03,06,57,14.40
2017,09,03,06,58,14.40
2017,09,03,06,59,14.40
2017,09,03,07,00,14.40
2017,09,03,07,01,14.40
2017,09,03,07,02,14.40
2017,09,03,07,03,14.40
2017,09,03,07,04,14.40
2017,09,03,07,05,14.40
2017,09,03,07,06,14.40
2017,09,03,07,07,14.40
2017,09,03,07,08,14.40
2017,09,03,07,09,14.40
2017,09,03,07,10,14.40
2017,09,03,07,11,14.40
2017,09,03,07,12,14.50
2017,09,03,07,13,14.50
2017,09,03,07,14,14.50
2017,09,03,07,15,14.50
2017,09,03,07,16,14.50
2017,09,03,07,17,14.50
2017,09,03,07,18,14.50
2017,09,03,07,19,14.50
2017,09,03,07,20,14.50
2017,09,03,07,21,14.50
2017,09,03,07,22,14.50
2017,09,03,07,23,14.50
2017,09,03,07,24,14.50
2017,09,03,07,25,14.50
2017,09,03,07,26,14.60
2017,09,03,07,27,14.60
2017,09,03,07,28,14.60
2017,09,03,07,29,14.70
2017,09,03,07,30,14.70
2017,09,03,07,31,14.70
2017,09,03,07,32,14.70
2017,09,03,07,33,14.70
2017,09,03,07,34,14.80
2017,09,03,07,35,14.80
2017,09,03,07,36,14.80
2017,09,03,07,37,14.90
2017,09,03,07,38,14.90
2017,09,03,07,39,14.90
2017,09,03,07,40,15.00
2017,09,03,07,41,15.00
2017,09,03,07,42,15.10
2017,09,03,07,43,15.10
2017,09,03,07,44,15.20
2017,09,03,07,45,15.20
2017,09,03,07,46,15.20
2017,09,03,07,47,15.30
2017,09,03,07,48,15.30
2017,09,03,07,49,15.40
2017,09,03,07,50,15.40
2017,09,03,07,51,15.50
2017,09,03,07,52,15.60
2017,09,03,07,53,15.70
2017,09,03,07,54,15.70
2017,09,03,07,55,15.80
2017,09,03,07,56,15.90
2017,09,03,07,57,15.90
2017,09,03,07,58,16.00
2017,09,03,07,59,16.00
2017,09,03,08,00,16.10
2017,09,03,08,01,16.20
2017,09,03,08,02,16.20
2017,09,03,08,03,16.30
2017,09,03,08,04,16.40
2017,09,03,08,05,16.40
2017,09,03,08,06,16.50
2017,09,03,08,07,16.60
2017,09,03,08,08,16.70
2017,09,03,08,09,16.80
2017,09,03,08,10,16.80
2017,09,03,08,11,16.90
2017,09,03,08,12,17.00
2017,09,03,08,13,17.10
2017,09,03,08,14,17.10
2017,09,03,08,15,17.20
2017,09,03,08,16,17.30
2017,09,03,08,17,17.30
2017,09,03,08,18,17.40
2017,09,03,08,19,17.50
2017,09,03,08,20,17.60
2017,09,03,08,21,17.70
2017,09,03,08,22,17.80
2017,09,03,08,23,17.80
2017,09,03,08,24,17.80
2017,09,03,08,25,17.90
2017,09,03,08,26,17.90
2017,09,03,08,27,17.90
2017,09,03,08,28,18.00
2017,09,03,08,29,18.00
2017,09,03,08,30,18.10
2017,09,03,08,31,18.10
2017,09,03,08,32,18.20
2017,09,03,08,33,18.20
2017,09,03,08,34,18.30
2017,09,03,08,35,18.40
2017,09,03,08,36,18.50
2017,09,03,08,37,18.60
2017,09,03,08,38,18.70
2017,09,03,08,39,18.80
2017,09,03,08,40,18.80
2017,09,03,08,41,18.90
2017,09,03,08,42,19.00
2017,09,03,08,43,19.10
2017,09,03,08,44,19.20
2017,09,03,08,45,19.30
2017,09,03,08,46,19.40
2017,09,03,08,47,19.50
2017,09,03,08,48,19.60
2017,09,03,08,49,19.60
2017,09,03,08,50,19.60
2017,09,03,08,51,19.60
2017,09,03,08,52,19.60
2017,09,03,08,53,19.70
2017,09,03,08,54,19.70
2017,09,03,08,55,19.80
2017,09,03,08,56,19.80
2017,09,03,08,57,19.90
2017,09,03,08,58,20.00
2017,09,03,08,59,20.10
2017,09,03,09,00,20.10
2017,09,03,09,01,20.10
2017,09,03,09,02,20.20
2017,09,03,09,03,20.30
2017,09,03,09,04,20.30
2017,09,03,09,05,20.40
2017,09,03,09,06,20.50
2017,09,03,09,07,20.60
2017,09,03,09,08,20.60
2017,09,03,09,09,20.80
2017,09,03,09,10,20.90
2017,09,03,09,11,20.90
2017,09,03,09,12,21.00
2017,09,03,09,13,21.10
2017,09,03,09,14,21.20
2017,09,03,09,15,21.20
2017,09,03,09,16,21.30
2017,09,03,09,17,21.30
2017,09,03,09,18,21.30
2017,09,03,09,19,21.30
2017,09,03,09,20,21.30
2017,09,03,09,21,21.30
2017,09,03,09,22,21.40
2017,09,03,09,23,21.40
2017,09,03,09,24,21.50
2017,09,03,09,25,21.70
2017,09,03,09,26,21.70
2017,09,03,09,27,21.90
2017,09,03,09,28,22.00
2017,09,03,09,29,22.00
2017,09,03,09,30,22.10
2017,09,03,09,31,22.20
2017,09,03,09,32,22.30
2017,09,03,09,33,22.50
2017,09,03,09,34,22.60
2017,09,03,09,35,22.70
2017,09,03,09,36,22.80
2017,09,03,09,37,23.00
2017,09,03,09,38,23.00
2017,09,03,09,39,23.10
2017,09,03,09,40,23.10
2017,09,03,09,41,23.20
2017,09,03,09,42,23.20
2017,09,03,09,43,23.30
2017,09,03,09,44,23.30
2017,09,03,09,45,23.40
2017,09,03,09,46,23.40
2017,09,03,09,47,23.40
2017,09,03,09,48,23.40
2017,09,03,09,49,23.30
2017,09,03,09,50,23.20
2017,09,03,09,51,23.10
2017,09,03,09,52,23.10
2017,09,03,09,53,23.00
2017,09,03,09,54,23.00
2017,09,03,09,55,23.00
2017,09,03,09,56,23.10
2017,09,03,09,57,23.20
2017,09,03,09,58,23.30
2017,09,03,09,59,23.40
2017,09,03,10,00,23.50
2017,09,03,10,01,23.50
2017,09,03,10,02,23.50
2017,09,03,10,03,23.60
2017,09,03,10,04,23.60
2017,09,03,10,05,23.70
2017,09,03,10,06,23.70
2017,09,03,10,07,23.80
2017,09,03,10,08,23.80
2017,09,03,10,09,23.90
2017,09,03,10,10,24.00
2017,09,03,10,11,24.10
2017,09,03,10,12,24.20
2017,09,03,10,13,24.30
2017,09,03,10,14,24.40
2017,09,03,10,15,24.40
2017,09,03,10,16,24.40
2017,09,03,10,17,24.40
2017,09,03,10,18,24.40
2017,09,03,10,19,24.40
2017,09,03,10,20,24.30
2017,09,03,10,21,24.30
2017,09,03,10,22,24.30
2017,09,03,10,23,24.40
2017,09,03,10,24,24.40
2017,09,03,10,25,24.50
2017,09,03,10,26,24.60
2017,09,03,10,27,24.60
2017,09,03,10,28,24.70
2017,09,03,10,29,24.70
2017,09,03,10,30,24.70
2017,09,03,10,31,24.70
2017,09,03,10,32,24.60
2017,09,03,10,33,24.60
2017,09,03,10,34,24.50
2017,09,03,10,35,24.40
2017,09,03,10,36,24.40
2017,09,03,10,37,24.30
2017,09,03,10,38,24.30
2017,09,03,10,39,24.30
2017,09,03,10,40,24.30
2017,09,03,10,41,24.20
2017,09,03,10,42,24.10
2017,09,03,10,43,24.10
2017,09,03,10,44,24.00
2017,09,03,10,45,24.00
2017,09,03,10,46,23.90
2017,09,03,10,47,23.90
2017,09,03,10,48,23.90
2017,09,03,10,49,23.90
2017,09,03,10,50,23.90
2017,09,03,10,51,23.90
2017,09,03,10,52,23.90
2017,09,03,10,53,23.90
2017,09,03,10,54,23.90
2017,09,03,10,55,23.90
2017,09,03,10,56,23.90
2017,09,03,10,57,23.90
2017,09,03,10,58,24.00
2017,09,03,10,59,24.10
2017,09,03,11,00,24.10
2017,09,03,11,01,24.20
2017,09,03,11,02,24.20
2017,09,03,11,03,24.20
2017,09,03,11,04,24.30
2017,09,03,11,05,24.30
2017,09,03,11,06,24.40
2017,09,03,11,07,24.40
2017,09,03,11,08,24.50
2017,09,03,11,09,24.50
2017,09,03,11,10,24.50
2017,09,03,11,11,24.50
2017,09,03,11,12,24.40
2017,09,03,11,13,24.40
2017,09,03,11,14,24.40
2017,09,03,11,15,24.50
2017,09,03,11,16,24.60
2017,09,03,11,17,24.70
2017,09,03,11,18,24.90
2017,09,03,11,19,25.10
2017,09,03,11,20,25.20
2017,09,03,11,21,25.20
2017,09,03,11,22,25.20
2017,09,03,11,23,25.20
2017,09,03,11,24,25.20
2017,09,03,11,25,25.20
2017,09,03,11,26,25.30
2017,09,03,11,27,25.30
2017,09,03,11,28,25.30
2017,09,03,11,29,25.30
2017,09,03,11,30,25.20
2017,09,03,11,31,25.10
2017,09,03,11,32,25.10
2017,09,03,11,33,25.10
2017,09,03,11,34,25.10
2017,09,03,11,35,25.00
2017,09,03,11,36,25.00
2017,09,03,11,37,25.00
2017,09,03,11,38,25.00
2017,09,03,11,39,24.90
2017,09,03,11,40,24.90
2017,09,03,11,41,25.00
2017,09,03,11,42,25.00
2017,09,03,11,43,25.10
2017,09,03,11,44,25.20
2017,09,03,11,45,25.30
2017,09,03,11,46,25.40
2017,09,03,11,47,25.60
2017,09,03,11,48,25.70
2017,09,03,11,49,25.80
2017,09,03,11,50,25.80
2017,09,03,11,51,25.80
2017,09,03,11,52,25.80
2017,09,03,11,53,25.80
2017,09,03,11,54,25.90
2017,09,03,11,55,25.90
2017,09,03,11,56,25.90
2017,09,03,11,57,25.80
2017,09,03,11,58,25.70
2017,09,03,11,59,25.60
2017,09,03,12,00,25.50
2017,09,03,12,01,25.50
2017,09,03,12,02,25.40
2017,09,03,12,03,25.30
2017,09,03,12,04,25.20
2017,09,03,12,05,25.10
2017,09,03,12,06,25.10
2017,09,03,12,07,25.10
2017,09,03,12,08,25.20
2017,09,03,12,09,25.40
2017,09,03,12,10,25.40
2017,09,03,12,11,25.30
2017,09,03,12,12,25.20
2017,09,03,12,13,25.00
2017,09,03,12,14,24.90
2017,09,03,12,15,24.70
2017,09,03,12,16,24.70
2017,09,03,12,17,24.70
2017,09,03,12,18,24.70
2017,09,03,12,19,24.60
2017,09,03,12,20,24.50
2017,09,03,12,21,24.50
2017,09,03,12,22,24.40
2017,09,03,12,23,24.40
2017,09,03,12,24,24.40
2017,09,03,12,25,24.50
2017,09,03,12,26,24.70
2017,09,03,12,27,24.80
2017,09,03,12,28,24.90
2017,09,03,12,29,25.10
2017,09,03,12,30,25.30
2017,09,03,12,31,25.40
2017,09,03,12,32,25.50
2017,09,03,12,33,25.60
2017,09,03,12,34,25.60
2017,09,03,12,35,25.70
2017,09,03,12,36,25.80
2017,09,03,12,37,25.90
2017,09,03,12,38,25.90
2017,09,03,12,39,25.90
2017,09,03,12,40,25.90
2017,09,03,12,41,25.90
2017,09,03,12,42,25.90
2017,09,03,12,43,25.70
2017,09,03,12,44,25.60
2017,09,03,12,45,25.60
2017,09,03,12,46,25.60
2017,09,03,12,47,25.60
2017,09,03,12,48,25.60
2017,09,03,12,49,25.60
2017,09,03,12,50,25.60
2017,09,03,12,51,25.50
2017,09,03,12,52,25.50
2017,09,03,12,53,25.50
2017,09,03,12,54,25.50
2017,09,03,12,55,25.40
2017,09,03,12,56,25.40
2017,09,03,12,57,25.40
2017,09,03,12,58,25.50
2017,09,03,12,59,25.50
2017,09,03,13,00,25.60
2017,09,03,13,01,25.60
2017,09,03,13,02,25.70
2017,09,03,13,03,25.80
2017,09,03,13,04,26.00
2017,09,03,13,05,26.20
2017,09,03,13,06,26.30
2017,09,03,13,07,26.30
2017,09,03,13,08,26.40
2017,09,03,13,09,26.40
2017,09,03,13,10,26.50
2017,09,03,13,11,26.50
2017,09,03,13,12,26.50
2017,09,03,13,13,26.50
2017,09,03,13,14,26.40
2017,09,03,13,15,26.40
2017,09,03,13,16,26.40
2017,09,03,13,17,26.50
2017,09,03,13,18,26.60
2017,09,03,13,19,26.80
2017,09,03,13,20,27.00
2017,09,03,13,21,27.20
2017,09,03,13,22,27.30
2017,09,03,13,23,27.40
2017,09,03,13,24,27.50
2017,09,03,13,25,27.60
2017,09,03,13,26,27.80
2017,09,03,13,27,27.80
2017,09,03,13,28,27.80
2017,09,03,13,29,27.90
2017,09,03,13,30,27.90
2017,09,03,13,31,27.90
2017,09,03,13,32,28.00
2017,09,03,13,33,28.00
2017,09,03,13,34,28.10
2017,09,03,13,35,28.10
2017,09,03,13,36,28.20
2017,09,03,13,37,28.20
2017,09,03,13,38,28.20
2017,09,03,13,39,28.20
2017,09,03,13,40,28.20
2017,09,03,13,41,28.10
2017,09,03,13,42,27.90
2017,09,03,13,43,27.80
2017,09,03,13,44,27.80
2017,09,03,13,45,27.80
2017,09,03,13,46,27.80
2017,09,03,13,47,27.90
2017,09,03,13,48,28.00
2017,09,03,13,49,28.00
2017,09,03,13,50,28.10
2017,09,03,13,51,28.10
2017,09,03,13,52,28.10
2017,09,03,13,53,28.20
2017,09,03,13,54,28.20
2017,09,03,13,55,28.30
2017,09,03,13,56,28.30
2017,09,03,13,57,28.40
2017,09,03,13,58,28.50
2017,09,03,13,59,28.50
2017,09,03,14,00,28.50
2017,09,03,14,01,28.60
2017,09,03,14,02,28.70
2017,09,03,14,03,28.80
2017,09,03,14,04,28.80
2017,09,03,14,05,28.80
2017,09,03,14,06,28.80
2017,09,03,14,07,28.90
2017,09,03,14,08,29.00
2017,09,03,14,09,29.00
2017,09,03,14,10,29.10
2017,09,03,14,11,29.10
2017,09,03,14,12,29.10
2017,09,03,14,13,28.90
2017,09,03,14,14,28.50
2017,09,03,14,15,28.20
2017,09,03,14,16,28.00
2017,09,03,14,17,28.00
2017,09,03,14,18,28.00
2017,09,03,14,19,27.90
2017,09,03,14,20,27.70
2017,09,03,14,21,27.60
2017,09,03,14,22,27.50
2017,09,03,14,23,27.40
2017,09,03,14,24,27.20
2017,09,03,14,25,27.00
2017,09,03,14,26,26.80
2017,09,03,14,27,26.60
2017,09,03,14,28,26.50
2017,09,03,14,29,26.30
2017,09,03,14,30,26.20
2017,09,03,14,31,26.10
2017,09,03,14,32,26.20
2017,09,03,14,33,26.30
2017,09,03,14,34,26.50
2017,09,03,14,35,26.60
2017,09,03,14,36,26.80
2017,09,03,14,37,26.80
2017,09,03,14,38,26.70
2017,09,03,14,39,26.70
2017,09,03,14,40,26.80
2017,09,03,14,41,26.90
2017,09,03,14,42,27.00
2017,09,03,14,43,27.10
2017,09,03,14,44,27.20
2017,09,03,14,45,27.10
2017,09,03,14,46,27.00
2017,09,03,14,47,26.90
2017,09,03,14,48,26.80
2017,09,03,14,49,26.70
2017,09,03,14,50,26.80
2017,09,03,14,51,26.80
2017,09,03,14,52,26.90
2017,09,03,14,53,26.90
2017,09,03,14,54,27.00
2017,09,03,14,55,27.00
2017,09,03,14,56,27.00
2017,09,03,14,57,26.90
2017,09,03,14,58,26.90
2017,09,03,14,59,26.90
2017,09,03,15,00,26.90
2017,09,03,15,01,27.10
2017,09,03,15,02,27.20
2017,09,03,15,03,27.40
2017,09,03,15,04,27.50
2017,09,03,15,05,27.70
2017,09,03,15,06,27.70
2017,09,03,15,07,27.80
2017,09,03,15,08,27.90
2017,09,03,15,09,27.90
2017,09,03,15,10,28.00
2017,09,03,15,11,28.00
2017,09,03,15,12,28.10
2017,09,03,15,13,28.00
2017,09,03,15,14,27.90
2017,09,03,15,15,27.80
2017,09,03,15,16,27.80
2017,09,03,15,17,27.70
2017,09,03,15,18,27.60
2017,09,03,15,19,27.50
2017,09,03,15,20,27.40
2017,09,03,15,21,27.30
2017,09,03,15,22,27.30
2017,09,03,15,23,27.20
2017,09,03,15,24,27.20
2017,09,03,15,25,27.20
2017,09,03,15,26,27.20
2017,09,03,15,27,27.20
2017,09,03,15,28,27.30
2017,09,03,15,29,27.30
2017,09,03,15,30,27.40
2017,09,03,15,31,27.40
2017,09,03,15,32,27.50
2017,09,03,15,33,27.60
2017,09,03,15,34,27.60
2017,09,03,15,35,27.60
2017,09,03,15,36,27.70
2017,09,03,15,37,27.70
2017,09,03,15,38,27.70
2017,09,03,15,39,27.70
2017,09,03,15,40,27.60
2017,09,03,15,41,27.60
2017,09,03,15,42,27.50
2017,09,03,15,43,27.40
2017,09,03,15,44,27.30
2017,09,03,15,45,27.10
2017,09,03,15,46,26.70
2017,09,03,15,47,26.40
2017,09,03,15,48,26.20
2017,09,03,15,49,26.20
2017,09,03,15,50,26.20
2017,09,03,15,51,26.20
2017,09,03,15,52,26.30
2017,09,03,15,53,26.20
2017,09,03,15,54,26.10
2017,09,03,15,55,26.10
2017,09,03,15,56,26.10
2017,09,03,15,57,26.10
2017,09,03,15,58,26.10
2017,09,03,15,59,26.20
2017,09,03,16,00,26.30
2017,09,03,16,01,26.50
2017,09,03,16,02,26.60
2017,09,03,16,03,26.70
2017,09,03,16,04,26.70
2017,09,03,16,05,26.60
2017,09,03,16,06,26.40
2017,09,03,16,07,26.30
2017,09,03,16,08,26.10
2017,09,03,16,09,26.00
2017,09,03,16,10,25.90
2017,09,03,16,11,25.80
2017,09,03,16,12,25.80
2017,09,03,16,13,25.70
2017,09,03,16,14,25.60
2017,09,03,16,15,25.60
2017,09,03,16,16,25.40
2017,09,03,16,17,25.20
2017,09,03,16,18,25.20
2017,09,03,16,19,25.10
2017,09,03,16,20,24.90
2017,09,03,16,21,24.80
2017,09,03,16,22,24.70
2017,09,03,16,23,24.70
2017,09,03,16,24,24.80
2017,09,03,16,25,24.80
2017,09,03,16,26,24.80
2017,09,03,16,27,24.90
2017,09,03,16,28,24.90
2017,09,03,16,29,24.90
2017,09,03,16,30,25.00
2017,09,03,16,31,25.00
2017,09,03,16,32,25.00
2017,09,03,16,33,25.00
2017,09,03,16,34,25.00
2017,09,03,16,35,24.90
2017,09,03,16,36,24.80
2017,09,03,16,37,24.70
2017,09,03,16,38,24.70
2017,09,03,16,39,24.70
2017,09,03,16,40,24.70
2017,09,03,16,41,24.80
2017,09,03,16,42,24.90
2017,09,03,16,43,25.10
2017,09,03,16,44,25.10
2017,09,03,16,45,25.20
2017,09,03,16,46,25.30
2017,09,03,16,47,25.40
2017,09,03,16,48,25.60
2017,09,03,16,49,25.70
2017,09,03,16,50,25.80
2017,09,03,16,51,25.90
2017,09,03,16,52,25.90
2017,09,03,16,53,26.00
2017,09,03,16,54,26.00
2017,09,03,16,55,26.10
2017,09,03,16,56,26.10
2017,09,03,16,57,26.20
2017,09,03,16,58,26.20
2017,09,03,16,59,26.20
2017,09,03,17,00,26.20
2017,09,03,17,01,26.30
2017,09,03,17,02,26.30
2017,09,03,17,03,26.30
2017,09,03,17,04,26.30
2017,09,03,17,05,26.30
2017,09,03,17,06,26.30
2017,09,03,17,07,26.20
2017,09,03,17,08,26.10
2017,09,03,17,09,25.90
2017,09,03,17,10,25.80
2017,09,03,17,11,25.70
2017,09,03,17,12,25.60
2017,09,03,17,13,25.40
2017,09,03,17,14,25.30
2017,09,03,17,15,25.10
2017,09,03,17,16,24.90
2017,09,03,17,17,24.80
2017,09,03,17,18,24.80
2017,09,03,17,19,24.70